FW7644 Weather Reports


time (UTC)temp
F
wind
direction
speed
knots
gust
knots
rain 1hr
in
rain 24hr
in
rain mn
in
humidity
%
barometer
mb
20260904015524 54 0.0 0.0 0.00 0.00 0.00 86 1017.3
20260904015022 55 0.0 0.0 0.00 0.00 0.00 84 1017.3
20260904014520 55 0.0 0.0 0.00 0.00 0.00 84 1017.4
20260904014019 55 0.0 0.0 0.00 0.00 0.00 84 1017.4
20260904013517 55 0.0 0.0 0.00 0.00 0.00 84 1017.4
20260904013015 55 0.0 0.0 0.00 0.00 0.00 84 1017.4
20260904012514 55 0.0 0.0 0.00 0.00 0.00 83 1017.4
20260904012010 55 0.0 0.0 0.00 0.00 0.00 82 1017.4
20260904011509 55 0.0 0.0 0.00 0.00 0.00 82 1017.4
20260904010505 55 0.0 0.0 0.00 0.00 0.00 81 1017.4
20260904010003 56 0.0 0.0 0.00 0.00 0.00 81 1017.4
20260904005000 56 0.0 0.0 0.00 0.00 0.00 81 1017.4
20260904004458 56 0.0 0.0 0.00 0.00 0.00 81 1017.4
20260904002953 57 0.0 0.0 0.00 0.00 0.00 80 1017.5
20260904002453 57 0.0 0.0 0.00 0.00 0.00 80 1017.5
20260904001951 57 0.0 0.0 0.00 0.00 0.00 79 1017.5
20260904001448 57 0.0 0.0 0.00 0.00 0.00 79 1017.5
20260904000946 57 0.0 0.0 0.00 0.00 0.00 79 1017.5
20260904000447 57 0.0 0.0 0.00 0.00 0.00 78 1017.5
20260903235440 58 0.0 0.0 0.00 0.00 0.00 77 1017.3
20260903234938 58 0.0 0.0 0.00 0.00 0.00 77 1017.4
20260903234435 58 0.0 0.0 0.00 0.00 0.00 75 1017.3
20260903233933 58 0.0 0.0 0.00 0.00 0.00 75 1017.3
20260903233431 59 0.0 0.0 0.00 0.00 0.00 74 1017.3
20260903232427 59 0.0 0.0 0.00 0.00 0.00 74 1017.2
20260903231925 59 0.0 0.0 0.00 0.00 0.00 73 1017.2
20260903230922 60 0.0 0.0 0.00 0.00 0.00 71 1017.1
20260903230420 60 0.0 0.0 0.00 0.00 0.00 71 1017.1
20260903225324 60 0.0 0.0 0.00 0.00 0.00 71 1017.0
20260903224821 60 0.0 0.0 0.00 0.00 0.00 70 1017.0
20260903224319 61 0.0 0.0 0.00 0.00 0.00 70 1017.0
20260903223817 61 0.0 0.0 0.00 0.00 0.00 69 1017.0
20260903223315 61 0.0 0.0 0.00 0.00 0.00 68 1016.9
20260903222813 61 0.0 0.0 0.00 0.00 0.00 66 1016.9
20260903222311 62 0.0 0.0 0.00 0.00 0.00 66 1016.9
20260903221810 62 0.0 0.0 0.00 0.00 0.00 63 1016.9
20260903221308 63 0.0 0.0 0.00 0.00 0.00 62 1016.9
20260903220805 63 0.0 0.0 0.00 0.00 0.00 59 1017.0
20260903220303 63 0.0 0.0 0.00 0.00 0.00 56 1016.9
20260903215801 64 0.0 0.0 0.00 0.00 0.00 55 1016.9
20260903215258 64 0.0 0.0 0.00 0.00 0.00 53 1016.8
20260903214756 65 0.0 0.0 0.00 0.00 0.00 53 1016.8
20260903214254 65 0.0 0.0 0.00 0.00 0.00 51 1016.7
20260903213752 66 0.0 0.0 0.00 0.00 0.00 48 1016.6
20260903213250 67 0.0 0.0 0.00 0.00 0.00 46 1016.6
20260903212748 68 0.0 0.0 0.00 0.00 0.00 45 1016.6
20260903212245 68 0.0 0.0 0.00 0.00 0.00 44 1016.7
20260903211743 68 0.0 0.0 0.00 0.00 0.00 43 1016.7
20260903211241 69 0.0 0.0 0.00 0.00 0.00 43 1016.6
20260903210739 69 0.0 0.0 0.00 0.00 0.00 43 1016.5
20260903210237 69 0.0 0.0 0.00 0.00 0.00 42 1016.5
20260903205735 70 0.0 0.0 0.00 0.00 0.00 41 1016.4
20260903205233 71 0.0 0.0 0.00 0.00 0.00 39 1016.4
20260903204731 71 0.0 0.0 0.00 0.00 0.00 38 1016.4
20260903204229 72 0.0 0.0 0.00 0.00 0.00 37 1016.5
20260903203727 73 0.0 0.0 0.00 0.00 0.00 36 1016.5
20260903203225 73 0.0 0.0 0.00 0.00 0.00 36 1016.6
20260903202723 74 0.0 0.0 0.00 0.00 0.00 35 1016.5
20260903202220 75 0.0 0.0 0.00 0.00 0.00 34 1016.5
20260903201717 78 0.0 0.0 0.00 0.00 0.00 31 1016.5
20260903201215 75 0.0 0.0 0.00 0.00 0.00 33 1016.5
20260903200713 78 0.0 0.0 0.00 0.00 0.00 31 1016.6
20260903200211 79 0.0 0.0 0.00 0.00 0.00 30 1016.7
20260903195708 77 0.0 0.0 0.00 0.00 0.00 32 1016.7
20260903195206 78 0.0 0.0 0.00 0.00 0.00 31 1016.8
20260903194704 79 0.0 0.0 0.00 0.00 0.00 31 1016.9
20260903194202 75 0.0 0.0 0.00 0.00 0.00 34 1016.9
20260903193700 75 0.0 0.0 0.00 0.00 0.00 35 1016.9
20260903193158 77 0.0 0.0 0.00 0.00 0.00 33 1017.0
20260903192656 80 0.0 0.0 0.00 0.00 0.00 31 1017.1
20260903192153 80 0.0 0.0 0.00 0.00 0.00 31 1017.0
20260903191650 80 0.0 0.0 0.00 0.00 0.00 31 1017.1
20260903191148 79 0.0 0.0 0.00 0.00 0.00 32 1017.0
20260903190645 77 0.0 0.0 0.00 0.00 0.00 33 1017.1
20260903190143 77 0.0 0.0 0.00 0.00 0.00 34 1017.1
20260903185640 76 0.0 0.0 0.00 0.00 0.00 34 1017.1
20260903185138 77 0.0 0.0 0.00 0.00 0.00 33 1017.1
20260903184636 77 0.0 0.0 0.00 0.00 0.00 32 1017.1
20260903184133 80 0.0 0.0 0.00 0.00 0.00 30 1017.2
20260903183632 80 0.0 0.0 0.00 0.00 0.00 29 1017.3
20260903183129 81 0.0 0.0 0.00 0.00 0.00 28 1017.3
20260903182627 82 0.0 0.0 0.00 0.00 0.00 28 1017.2
20260903182125 80 0.0 0.0 0.00 0.00 0.00 30 1017.2
20260903181622 80 0.0 0.0 0.00 0.00 0.00 28 1017.2
20260903181120 78 0.0 0.0 0.00 0.00 0.00 29 1017.3
20260903180618 80 0.0 0.0 0.00 0.00 0.00 28 1017.3
20260903180116 78 0.0 0.0 0.00 0.00 0.00 29 1017.3
20260903175613 78 0.0 0.0 0.00 0.00 0.00 29 1017.4
20260903175111 80 0.0 0.0 0.00 0.00 0.00 27 1017.5
20260903174610 80 0.0 0.0 0.00 0.00 0.00 28 1017.6
20260903174107 81 0.0 0.0 0.00 0.00 0.00 27 1017.6
20260903173606 80 0.0 0.0 0.00 0.00 0.00 27 1017.6
20260903173104 77 0.0 0.0 0.00 0.00 0.00 28 1017.6
20260903172601 80 0.0 0.0 0.00 0.00 0.00 26 1017.8
20260903172058 79 0.0 0.0 0.00 0.00 0.00 27 1017.8
20260903171556 81 0.0 0.0 0.00 0.00 0.00 25 1017.9
20260903171054 80 0.0 0.0 0.00 0.00 0.00 25 1018.0
20260903170552 80 0.0 0.0 0.00 0.00 0.00 25 1018.0
20260903170051 80 0.0 0.0 0.00 0.00 0.00 24 1018.0
20260903165549 79 0.0 0.0 0.00 0.00 0.00 25 1018.1
20260903165047 79 0.0 0.0 0.00 0.00 0.00 24 1018.2
20260903164545 78 0.0 0.0 0.00 0.00 0.00 23 1018.3
20260903164040 80 0.0 0.0 0.00 0.00 0.00 23 1018.4
20260903163538 80 0.0 0.0 0.00 0.00 0.00 22 1018.4
20260903163035 80 0.0 0.0 0.00 0.00 0.00 22 1018.5
20260903162533 80 0.0 0.0 0.00 0.00 0.00 23 1018.5
20260903162030 81 0.0 0.0 0.00 0.00 0.00 23 1018.6
20260903161528 80 0.0 0.0 0.00 0.00 0.00 23 1018.6
20260903161026 79 0.0 0.0 0.00 0.00 0.00 24 1018.6
20260903160524 79 0.0 0.0 0.00 0.00 0.00 23 1018.7
20260903160022 81 0.0 0.0 0.00 0.00 0.00 23 1018.8
20260903155519 79 0.0 0.0 0.00 0.00 0.00 25 1018.8
20260903155018 78 0.0 0.0 0.00 0.00 0.00 25 1018.9
20260903154516 77 0.0 0.0 0.00 0.00 0.00 25 1019.0
20260903154014 78 0.0 0.0 0.00 0.00 0.00 25 1019.0
20260903153513 77 0.0 0.0 0.00 0.00 0.00 24 1019.1
20260903153011 77 0.0 0.0 0.00 0.00 0.00 24 1019.1
20260903152508 77 0.0 0.0 0.00 0.00 0.00 26 1019.2
20260903152006 77 0.0 0.0 0.00 0.00 0.00 28 1019.3
20260903151504 78 0.0 0.0 0.00 0.00 0.00 27 1019.4
20260903151002 76 0.0 0.0 0.00 0.00 0.00 27 1019.5
20260903150500 77 0.0 0.0 0.00 0.00 0.00 27 1019.6
20260903145959 77 0.0 0.0 0.00 0.00 0.00 28 1019.6
20260903145457 78 0.0 0.0 0.00 0.00 0.00 27 1019.6
20260903144955 77 0.0 0.0 0.00 0.00 0.00 27 1019.6
20260903144453 77 0.0 0.0 0.00 0.00 0.00 27 1019.6
20260903143951 77 0.0 0.0 0.00 0.00 0.00 28 1019.7
20260903143449 78 0.0 0.0 0.00 0.00 0.00 31 1019.7
20260903142948 76 0.0 0.0 0.00 0.00 0.00 32 1019.8
20260903142446 76 0.0 0.0 0.00 0.00 0.00 32 1019.9
20260903141944 75 0.0 0.0 0.00 0.00 0.00 33 1020.0
20260903141442 75 0.0 0.0 0.00 0.00 0.00 33 1020.0
20260903140940 75 0.0 0.0 0.00 0.00 0.00 33 1020.0
20260903140438 75 0.0 0.0 0.00 0.00 0.00 34 1020.1
20260903135937 75 0.0 0.0 0.00 0.00 0.00 34 1020.1
20260903135435 74 0.0 0.0 0.00 0.00 0.00 35 1020.1
20260903134933 73 0.0 0.0 0.00 0.00 0.00 35 1020.1
20260903134431 73 0.0 0.0 0.00 0.00 0.00 35 1020.1
20260903133929 73 0.0 0.0 0.00 0.00 0.00 37 1020.2
20260903133428 73 0.0 0.0 0.00 0.00 0.00 37 1020.2
20260903132926 72 0.0 0.0 0.00 0.00 0.00 40 1020.2
20260903132424 73 0.0 0.0 0.00 0.00 0.00 40 1020.3
20260903131922 71 0.0 0.0 0.00 0.00 0.00 42 1020.3
20260903131420 72 0.0 0.0 0.00 0.00 0.00 43 1020.3
20260903130918 72 0.0 0.0 0.00 0.00 0.00 44 1020.4
20260903130416 71 0.0 0.0 0.00 0.00 0.00 44 1020.4
20260903125913 71 0.0 0.0 0.00 0.00 0.00 45 1020.5
20260903125411 70 0.0 0.0 0.00 0.00 0.00 47 1020.5
20260903124908 69 0.0 0.0 0.00 0.00 0.00 48 1020.4
20260903124405 69 0.0 0.0 0.00 0.00 0.00 49 1020.5
20260903123903 69 0.0 0.0 0.00 0.00 0.00 51 1020.5
20260903123400 68 0.0 0.0 0.00 0.00 0.00 54 1020.6
20260903122857 68 0.0 0.0 0.00 0.00 0.00 53 1020.7
20260903122355 67 0.0 0.0 0.00 0.00 0.00 54 1020.7
20260903121851 68 0.0 0.0 0.00 0.00 0.00 55 1020.8
20260903121348 67 0.0 0.0 0.00 0.00 0.00 56 1020.8
20260903120846 65 0.0 0.0 0.00 0.00 0.00 57 1020.8
20260903120344 63 0.0 0.0 0.00 0.00 0.00 60 1020.8
20260903115840 63 0.0 0.0 0.00 0.00 0.00 63 1020.8
20260903115338 65 0.0 0.0 0.00 0.00 0.00 60 1020.8
20260903114836 64 0.0 0.0 0.00 0.00 0.00 62 1020.9
20260903114334 65 0.0 0.0 0.00 0.00 0.00 60 1020.8
20260903113833 63 0.0 0.0 0.00 0.00 0.00 63 1020.8
20260903113332 63 0.0 0.0 0.00 0.00 0.00 63 1020.7
20260903112830 64 0.0 0.0 0.00 0.00 0.00 63 1020.8
20260903112328 62 0.0 0.0 0.00 0.00 0.00 67 1020.8
20260903111827 61 0.0 0.0 0.00 0.00 0.00 69 1020.9
20260903111325 62 0.0 0.0 0.00 0.00 0.00 67 1021.0
20260903110823 62 0.0 0.0 0.00 0.00 0.00 68 1021.0
20260903110321 63 0.0 0.0 0.00 0.00 0.00 66 1020.9
20260903105819 63 0.0 0.0 0.00 0.00 0.00 66 1020.9
20260903105317 63 0.0 0.0 0.00 0.00 0.00 66 1020.9
20260903104816 63 0.0 0.0 0.00 0.00 0.00 67 1020.9
20260903104314 62 0.0 0.0 0.00 0.00 0.00 69 1020.8
20260903103812 59 0.0 0.0 0.00 0.00 0.00 76 1020.9
20260903103311 54 0.0 0.0 0.00 0.00 0.00 91 1020.9
20260903102809 52 0.0 0.0 0.00 0.00 0.00 92 1020.9
20260903102308 53 0.0 0.0 0.00 0.00 0.00 92 1020.9
20260903101806 52 0.0 0.0 0.00 0.00 0.00 95 1020.9
20260903101304 51 0.0 0.0 0.00 0.00 0.00 95 1020.9
20260903100803 51 0.0 0.0 0.00 0.00 0.00 95 1021.0
20260903100301 51 0.0 0.0 0.00 0.00 0.00 94 1021.0
20260903095759 51 0.0 0.0 0.00 0.00 0.00 94 1021.0
20260903095258 51 0.0 0.0 0.00 0.00 0.00 94 1021.0
20260903094756 51 0.0 0.0 0.00 0.00 0.00 94 1021.0
20260903094255 51 0.0 0.0 0.00 0.00 0.00 94 1021.0
20260903093753 51 0.0 0.0 0.00 0.00 0.00 93 1020.9
20260903093251 52 0.0 0.0 0.00 0.00 0.00 93 1020.9
20260903092750 52 0.0 0.0 0.00 0.00 0.00 94 1020.8
20260903092248 51 0.0 0.0 0.00 0.00 0.00 93 1020.8
20260903091746 52 0.0 0.0 0.00 0.00 0.00 93 1020.7
20260903091244 52 0.0 0.0 0.00 0.00 0.00 92 1020.7
20260903090742 52 0.0 0.0 0.00 0.00 0.00 92 1020.7
20260903090241 52 0.0 0.0 0.00 0.00 0.00 92 1020.7
20260903085739 52 0.0 0.0 0.00 0.00 0.00 92 1020.7
20260903085238 53 0.0 0.0 0.00 0.00 0.00 91 1020.7
20260903084736 53 0.0 0.0 0.00 0.00 0.00 91 1020.7
20260903084235 53 0.0 0.0 0.00 0.00 0.00 90 1020.7
20260903083734 53 0.0 0.0 0.00 0.00 0.00 90 1020.7
20260903083232 53 0.0 0.0 0.00 0.00 0.00 90 1020.6
20260903082730 53 0.0 0.0 0.00 0.00 0.00 90 1020.6
20260903082229 53 0.0 0.0 0.00 0.00 0.00 90 1020.5
20260903081727 53 0.0 0.0 0.00 0.00 0.00 90 1020.6
20260903081226 53 0.0 0.0 0.00 0.00 0.00 90 1020.5
20260903080724 54 0.0 0.0 0.00 0.00 0.00 91 1020.5
20260903080223 54 0.0 0.0 0.00 0.00 0.00 92 1020.5
20260903075721 54 0.0 0.0 0.00 0.00 0.00 92 1020.5
20260903075220 54 0.0 0.0 0.00 0.00 0.00 92 1020.5
20260903074718 54 0.0 0.0 0.00 0.00 0.00 92 1020.5
20260903074217 54 0.0 0.0 0.00 0.00 0.00 92 1020.5
20260903073715 54 0.0 0.0 0.00 0.00 0.00 93 1020.6
20260903073213 54 0.0 0.0 0.00 0.00 0.00 93 1020.5
20260903072712 54 0.0 0.0 0.00 0.00 0.00 93 1020.5
20260903072210 54 0.0 0.0 0.00 0.00 0.00 94 1020.5
20260903071709 54 0.0 0.0 0.00 0.00 0.00 94 1020.6
20260903071207 54 0.0 0.0 0.00 0.00 0.00 94 1020.5
20260903070706 54 0.0 0.0 0.00 0.00 0.00 94 1020.5
20260903070204 55 0.0 0.0 0.00 0.00 0.00 94 1020.5
20260903065703 55 0.0 0.0 0.00 0.00 0.00 94 1020.6
20260903065201 55 0.0 0.0 0.00 0.00 0.00 94 1020.6
20260903064659 55 0.0 0.0 0.00 0.00 0.00 94 1020.6
20260903064158 55 0.0 0.0 0.00 0.00 0.00 94 1020.7
20260903063656 55 0.0 0.0 0.00 0.00 0.00 94 1020.7
20260903063154 55 0.0 0.0 0.00 0.00 0.00 94 1020.7
20260903062652 55 0.0 0.0 0.00 0.00 0.00 94 1020.7
20260903062150 55 0.0 0.0 0.00 0.00 0.00 94 1020.7
20260903061649 55 0.0 0.0 0.00 0.00 0.00 94 1020.7
20260903061147 55 0.0 0.0 0.00 0.00 0.00 94 1020.7
20260903060645 55 0.0 0.0 0.00 0.00 0.00 94 1020.8
20260903060144 55 0.0 0.0 0.00 0.00 0.00 94 1020.8
20260903055642 55 0.0 0.0 0.00 0.00 0.00 95 1020.8
20260903055141 55 0.0 0.0 0.00 0.00 0.00 95 1020.8
20260903054639 55 0.0 0.0 0.00 0.00 0.00 95 1020.8
20260903054137 55 0.0 0.0 0.00 0.00 0.00 95 1020.9
20260903053636 55 0.0 0.0 0.00 0.00 0.00 95 1020.9
20260903053134 55 0.0 0.0 0.00 0.00 0.00 95 1021.0
20260903052633 55 0.0 0.0 0.00 0.00 0.00 95 1021.0
20260903052131 55 0.0 0.0 0.00 0.00 0.00 94 1021.0
20260903051629 55 0.0 0.0 0.00 0.00 0.00 94 1021.1
20260903051127 56 0.0 0.0 0.00 0.00 0.00 94 1021.1
20260903050626 56 0.0 0.0 0.00 0.00 0.00 94 1021.2
20260903050125 56 0.0 0.0 0.00 0.00 0.00 93 1021.3
20260903045623 56 0.0 0.0 0.00 0.00 0.00 93 1021.4
20260903045121 56 0.0 0.0 0.00 0.00 0.00 93 1021.4
20260903044619 56 0.0 0.0 0.00 0.00 0.00 93 1021.5
20260903044118 56 0.0 0.0 0.00 0.00 0.00 94 1021.5
20260903043616 56 0.0 0.0 0.00 0.00 0.00 94 1021.6
20260903043114 56 0.0 0.0 0.00 0.00 0.00 94 1021.6
20260903042613 56 0.0 0.0 0.00 0.00 0.00 93 1021.6
20260903042112 56 0.0 0.0 0.00 0.00 0.00 94 1021.7
20260903041610 56 0.0 0.0 0.00 0.00 0.00 94 1021.7
20260903041109 56 0.0 0.0 0.00 0.00 0.00 93 1021.7
20260903040607 56 0.0 0.0 0.00 0.00 0.00 93 1021.8
20260903040105 56 0.0 0.0 0.00 0.00 0.00 93 1021.9
20260903035603 56 0.0 0.0 0.00 0.00 0.00 93 1021.9
20260903035102 56 0.0 0.0 0.00 0.00 0.00 94 1022.0
20260903034600 56 0.0 0.0 0.00 0.00 0.00 94 1022.0
20260903034059 56 0.0 0.0 0.00 0.00 0.00 94 1022.0
20260903033557 56 0.0 0.0 0.00 0.00 0.00 94 1022.1
20260903033055 56 0.0 0.0 0.00 0.00 0.00 94 1022.1
20260903032554 56 0.0 0.0 0.00 0.00 0.00 94 1022.1
20260903032052 56 0.0 0.0 0.00 0.00 0.00 95 1022.2
20260903031550 56 0.0 0.0 0.00 0.00 0.00 94 1022.2
20260903031049 56 0.0 0.0 0.00 0.00 0.00 94 1022.2
20260903030547 56 0.0 0.0 0.00 0.00 0.00 94 1022.3
20260903030045 56 0.0 0.0 0.00 0.00 0.00 94 1022.4
20260903025543 56 0.0 0.0 0.00 0.00 0.00 94 1022.4
20260903025042 57 0.0 0.0 0.00 0.00 0.00 95 1022.4
20260903024541 57 0.0 0.0 0.00 0.00 0.00 95 1022.4
20260903024039 56 0.0 0.0 0.00 0.00 0.00 95 1022.5
20260903023538 56 0.0 0.0 0.00 0.00 0.00 95 1022.5
20260903023036 57 0.0 0.0 0.00 0.00 0.00 95 1022.5
20260903022535 57 0.0 0.0 0.00 0.00 0.00 95 1022.5
20260903022033 57 0.0 0.0 0.00 0.00 0.00 95 1022.5
20260903021532 57 0.0 0.0 0.00 0.00 0.00 96 1022.6
20260903021030 57 0.0 0.0 0.00 0.00 0.00 96 1022.6
20260903020528 57 0.0 0.0 0.00 0.00 0.00 96 1022.6
20260903020027 57 0.0 0.0 0.00 0.00 0.00 96 1022.6